• Join FlightAware (Why Join?)
  • Login
  • US Flag 
06:50AM EDT


 

Airport Tracker/Info


-or-


 

Live Flight TrackerFlight Track Log ✈ RPA3275 ✈ 17-May-2013 ✈ KALB - KPHL

Flight Track Log - Related Links

Times and Time Zones

All times are in EDT time to prevent confusion due to time zone crossing. See the RPA3275 flight status page for this flight to view local times or setup timezone preferences in your user account.

Time Position Orientation Groundspeed Altitude Reporting Facility
EDT Latitude Longitude Course Direction KTS MPH feet Rate Location/Type
06:58AM 42.7653 -73.8061 220° Southwest 145 167 1,600  Level Boston Center
06:59AM 42.7769 -73.8714 284° West 220 253 4,000 2,400 Climbing Boston Center
07:00AM 42.7717 -73.9506 265° West 268 308 6,400 3,120 Climbing Boston Center
07:01AM 42.7333 -74.1427 270° West  Level FlightAware Approximate
07:01AM 42.7414 -74.0372 245° Southwest 268 308 10,000  Level Boston Center
07:02AM 42.7333 -74.2570 270° West  Level FlightAware Approximate
07:02AM 42.6839 -74.1261 229° Southwest 276 318 12,400  Level Boston Center
07:03AM 42.6992 -74.3530 220° Southwest  Level FlightAware Approximate
07:03AM 42.6325 -74.2094 230° Southwest 303 349 14,900  Level Boston Center
07:04AM 42.5683 -74.3150 230° Southwest 327 376 17,600 2,040 Climbing Boston Center
07:05AM 42.5169 -74.4006 231° Southwest 327 376 19,000 660 Climbing Boston Center
07:06AM 42.4525 -74.5083 231° Southwest 327 376 19,000  Level Boston Center
07:07AM 42.3989 -74.5908 229° Southwest 332 382 19,000  Level Boston Center
07:08AM 42.3342 -74.7011 232° Southwest 332 382 19,000  Level Boston Center
07:09AM 42.2758 -74.8000 231° Southwest 341 392 19,000  Level Boston Center
07:12AM 42.1203 -75.0094 225° Southwest 331 381 19,000  Level New York Center
07:13AM 42.0369 -75.0767 211° Southwest 354 407 19,000  Level New York Center
07:14AM 41.9531 -75.1439 211° Southwest 360 414 19,000  Level New York Center
07:15AM 41.8800 -75.2058 212° Southwest 355 409 19,000 -420 Level New York Center
07:16AM 41.7964 -75.2725 211° Southwest 355 409 18,200 -1,260 Descending New York Center
07:17AM 41.7061 -75.3442 211° Southwest 355 409 16,500 -1,620 Descending New York Center
07:18AM 41.6244 -75.4108 211° Southwest 350 403 15,000 -1,500 Descending New York Center
07:19AM 41.5450 -75.4744 211° Southwest 350 403 13,500 -1,440 Descending New York Center
07:20AM 41.4717 -75.5331 211° Southwest 350 403 12,100 -780 Descending New York Center
07:21AM 41.3944 -75.5939 211° Southwest 342 394 12,000 -60 Descending New York Center
07:22AM 41.3103 -75.6597 210° Southwest 335 386 12,000  Level New York Center
07:23AM 41.2239 -75.6867 193° South 330 380 12,000  Level New York Center
07:24AM 41.1269 -75.6603 168° South 332 382 12,000  Level New York Center
07:25AM 41.0431 -75.6294 165° South 354 407 12,000  Level New York Center
07:26AM 40.9400 -75.5975 167° South 354 407 12,000  Level New York Center
07:27AM 40.8539 -75.5667 165° South 354 407 12,000  Level New York Center
07:28AM 40.7511 -75.5319 166° South 354 407 12,000  Level New York Center
07:29AM 40.6667 -75.5042 166° South 354 407 12,000 -480 Level New York Center
07:30AM 40.5742 -75.4733 166° South 354 407 11,100 -900 Descending New York Center
07:31AM 40.4878 -75.4456 166° South 343 395 10,200 -960 Descending New York Center
07:32AM 40.3939 -75.3983 159° South 329 379 9,200 -960 Descending New York Center
07:33AM 40.3142 -75.3519 156° South 324 373 8,400 -900 Descending New York Center
07:34AM 40.2347 -75.3061 156° South 319 367 7,500 -720 Descending New York Center
07:35AM 40.1511 -75.2625 158° South 318 366 7,000 -360 Descending New York Center
07:36AM 40.0908 -75.1961 140° Southeast 318 366 6,900 -540 Descending New York Center
07:36AM 40.0333 -75.1333 140° Southeast 312 359 6,100 -1,020 Descending Philadelphia TRACON
07:37AM 39.9833 -75.0667 134° Southeast 271 312 5,200 -1,020 Descending Philadelphia TRACON
07:38AM 39.9167 -75.0333 159° South 203 234 4,100 -1,560 Descending Philadelphia TRACON
07:39AM 39.9000 -75.1000 252° West 190 219 2,100 -1,560 Descending Philadelphia TRACON
07:40AM 39.8833 -75.1500 247° West 154 177 1,000 -900 Descending Philadelphia TRACON
07:41AM 39.8833 -75.2000 270° West 119 137 400 -600 Descending Philadelphia TRACON